TimeCST,TemperatureF,Dew PointF,Humidity,Sea Level PressureIn,VisibilityMPH,Wind Direction,Wind SpeedMPH,Gust SpeedMPH,PrecipitationIn,Events,Conditions,WindDirDegrees,DateUTC
12:20 AM,24.8,19.4,80,29.80,8.0,NNW,27.6,36.8,N/A,,Overcast,340,2013-01-30 06:20:00
12:53 AM,23.0,18.0,81,29.87,8.0,NNW,27.6,39.1,N/A,,Overcast,340,2013-01-30 06:53:00
1:12 AM,21.2,17.6,86,29.80,7.0,NNW,24.2,35.7,N/A,,Overcast,340,2013-01-30 07:12:00
1:39 AM,21.2,17.6,86,29.80,6.0,NNW,25.3,33.4,N/A,,Overcast,340,2013-01-30 07:39:00
1:53 AM,19.9,16.0,85,29.90,8.0,NNW,27.6,42.6,N/A,,Overcast,330,2013-01-30 07:53:00
2:11 AM,19.4,14.0,80,29.83,9.0,North,24.2,41.4,0.00,,Overcast,350,2013-01-30 08:11:00
2:53 AM,19.0,14.0,81,29.92,3.0,NNW,21.9,33.4,0.00,Snow,Light Snow,340,2013-01-30 08:53:00
3:06 AM,19.4,12.2,74,29.85,7.0,NNW,27.6,36.8,0.00,Snow,Light Snow,340,2013-01-30 09:06:00
3:53 AM,19.0,12.9,77,29.94,6.0,North,27.6,34.5,0.00,Snow,Light Snow,350,2013-01-30 09:53:00
4:53 AM,19.0,12.0,74,29.94,8.0,NNW,24.2,32.2,0.00,Snow,Light Snow,340,2013-01-30 10:53:00
5:53 AM,19.0,12.0,74,29.95,8.0,NNW,19.6,27.6,0.00,Snow,Light Snow,340,2013-01-30 11:53:00
6:25 AM,19.4,10.4,68,29.87,10.0,NNW,18.4,32.2,0.00,,Overcast,340,2013-01-30 12:25:00
6:53 AM,19.0,10.9,71,29.95,10.0,NNW,20.7,28.8,0.00,,Overcast,330,2013-01-30 12:53:00
7:53 AM,17.1,10.0,74,29.96,9.0,NNW,21.9,31.1,0.00,Snow,Light Snow,330,2013-01-30 13:53:00
8:48 AM,15.8,8.6,73,29.89,10.0,NW,21.9,-,N/A,,Mostly Cloudy,320,2013-01-30 14:48:00
8:53 AM,16.0,9.0,74,29.97,10.0,NNW,17.3,26.5,N/A,,Scattered Clouds,330,2013-01-30 14:53:00
9:53 AM,16.0,7.0,68,29.98,10.0,NW,19.6,26.5,N/A,,Mostly Cloudy,320,2013-01-30 15:53:00
10:53 AM,18.0,9.0,68,29.98,10.0,NW,17.3,23.0,0.00,,Overcast,310,2013-01-30 16:53:00
11:08 AM,17.6,8.6,68,29.89,10.0,NNW,19.6,-,N/A,,Overcast,330,2013-01-30 17:08:00
11:19 AM,17.6,8.6,68,29.89,10.0,NW,13.8,23.0,N/A,,Overcast,320,2013-01-30 17:19:00
11:53 AM,19.0,9.0,65,29.97,10.0,NW,17.3,23.0,N/A,,Mostly Cloudy,310,2013-01-30 17:53:00
12:53 PM,21.0,9.0,60,29.96,10.0,NW,12.7,-,N/A,,Mostly Cloudy,310,2013-01-30 18:53:00
1:10 PM,21.2,10.4,63,29.85,10.0,NW,12.7,-,N/A,,Scattered Clouds,320,2013-01-30 19:10:00
1:53 PM,24.1,10.0,55,29.93,10.0,NW,13.8,20.7,N/A,,Clear,320,2013-01-30 19:53:00
2:53 PM,25.0,10.0,53,29.92,10.0,NW,15.0,-,N/A,,Partly Cloudy,320,2013-01-30 20:53:00
3:53 PM,26.1,9.0,49,29.91,10.0,NW,16.1,-,N/A,,Partly Cloudy,310,2013-01-30 21:53:00
4:53 PM,25.0,9.0,51,29.91,10.0,NW,10.4,-,N/A,,Clear,310,2013-01-30 22:53:00
5:53 PM,21.9,9.0,58,29.93,10.0,WNW,9.2,-,N/A,,Clear,300,2013-01-30 23:53:00
6:53 PM,21.0,10.9,65,29.94,10.0,NW,5.8,-,N/A,,Overcast,320,2013-01-31 00:53:00
7:53 PM,21.0,12.0,68,29.93,10.0,NNE,3.5,-,N/A,,Overcast,20,2013-01-31 01:53:00
8:53 PM,19.9,12.0,71,29.95,10.0,WNW,3.5,-,N/A,,Overcast,300,2013-01-31 02:53:00
9:53 PM,21.0,12.0,68,29.96,10.0,NW,6.9,-,N/A,,Overcast,320,2013-01-31 03:53:00
10:53 PM,19.9,12.0,71,29.97,10.0,North,6.9,-,N/A,,Overcast,350,2013-01-31 04:53:00
11:53 PM,18.0,10.9,74,29.98,10.0,North,6.9,-,0.00,,Overcast,360,2013-01-31 05:53:00